User: anonymous   Login
Location: Trois-Rivi�res
(46.3500°N, 72.5500°W)
Time: 09:26:02
(UTC-05:00)
Language:

SJ-11-01 - Orbit

View from above orbital plane
View from above orbital plane
View from above satellite
View from above satellite

Ground track
Ground track

The orbit data is extracted from the following two-line orbital elements,

1 36088U 09061A   14352.10618996  .00000853  00000-0  18585-3 0  6854
2 36088 098.0142 034.6416 0010194 221.7772 138.2677 14.60286049271574
Epoch (UTC): 18 December 2014 02:32:54
Eccentricity: 0.0010194
inclination: 98.0142°
perigee height: 685 km
apogee height: 699 km
right ascension of ascending node: 34.6416°
argument of perigee: 221.7772°
revolutions per day: 14.60286049
mean anomaly at epoch: 138.2677°
orbit number at epoch: 27157

The dashed part of the orbit path shows where the satellite is in the earth's shadow,  

DLR